Theta_e
315 315 314 313 313 312 311 310 309 309 308 307 306 306 304 304 304 304 304 303 303 303 302 302 302 302 303 303 303 303 303 302 302 301 301 301 302 302 301 301 301 300 299 298 296 296 296 295 294 293 291 286
311 311 311 310 309 308 308 307 306 305 304 303 302 302 302 302 302 301 301 301 301 301 300 300 300 301 301 302 302 302 302 302 301 300 300 299 300 300 300 299 299 298 298 296 295 294 293 293 292 291 289 285
305 307 306 306 305 304 304 303 302 301 301 300 299 299 298 298 299 298 297 298 298 298 299 298 298 299 300 300 301 301 301 301 300 300 299 298 297 297 297 297 297 296 296 295 294 293 292 291 290 290 286 282
300 302 302 301 301 301 300 299 299 298 297 297 297 296 296 295 292 293 292 295 292 295 295 296 295 297 298 299 299 299 299 299 299 299 298 297 296 295 294 294 294 294 294 294 293 292 290 289 288 283 282 281
297 298 300 299 299 299 299 298 297 296 295 294 294 293 293 292 289 288 288 288 288 291 290 293 294 294 295 296 297 297 297 297 297 297 296 296 295 293 292 291 291 291 292 292 292 290 289 287 281 281 281 281
297 297 296 293 293 294 294 295 294 292 291 292 290 292 290 288 288 286 286 287 289 287 288 289 292 292 293 294 294 295 295 294 295 295 295 294 293 292 290 290 284 285 287 290 290 288 287 281 280 280 280 280
296 294 293 293 292 293 293 292 291 290 290 288 288 288 288 288 286 286 286 286 288 288 290 288 290 290 290 292 292 291 292 292 292 292 293 292 291 290 289 284 281 281 280 281 287 286 282 280 280 280 279 279
294 293 292 291 291 290 289 289 289 288 288 287 287 287 286 285 286 286 284 288 288 287 284 284 287 288 288 288 289 289 286 288 289 288 289 290 288 287 285 281 281 281 279 279 279 279 280 279 279 279 279 278
292 292 291 290 290 289 288 288 287 287 286 287 286 286 285 285 286 285 283 283 283 282 282 282 281 281 281 281 281 286 281 281 283 283 281 281 284 280 281 281 280 280 279 280 279 279 279 279 279 278 279 278
293 292 289 289 289 288 287 287 286 285 285 285 285 285 285 285 284 283 282 282 282 282 281 281 280 280 280 280 280 283 280 280 281 280 279 280 280 280 280 280 280 280 280 278 278 278 279 278 278 277 277 277
291 289 289 288 288 287 285 285 284 284 284 284 284 284 285 283 282 282 281 281 281 280 280 280 279 279 279 279 279 280 279 280 280 280 279 279 279 279 280 280 280 279 279 278 278 279 278 278 278 277 277 277
290 289 288 288 288 286 288 285 283 283 283 284 283 284 283 284 281 280 280 280 280 280 280 280 280 279 279 278 278 280 279 279 278 279 278 279 279 279 279 279 279 279 279 278 278 278 278 278 278 278 277 277
289 288 287 286 285 284 287 283 282 283 283 282 282 282 283 283 281 280 280 280 279 279 279 279 279 278 278 278 278 279 278 279 278 278 278 278 278 278 278 278 278 279 278 278 278 277 278 278 277 277 277 277
288 287 286 285 284 284 284 282 282 282 281 281 281 280 281 282 281 280 279 279 279 278 278 278 278 278 277 277 277 277 277 278 277 277 277 277 278 278 277 278 279 278 278 278 278 277 277 277 277 276 276 276
286 286 285 285 283 283 282 282 282 281 281 280 280 280 281 281 281 280 279 279 278 278 278 277 277 277 277 276 277 277 277 278 278 277 277 278 277 277 277 277 278 278 278 277 277 278 277 277 277 276 277 276
285 284 284 283 282 282 282 282 281 280 280 281 280 280 280 280 279 281 279 279 279 278 277 277 276 276 276 276 276 277 277 277 278 278 278 279 278 278 277 277 278 279 277 277 276 276 277 277 277 276 276 276
285 284 284 283 282 282 283 281 280 279 279 279 280 279 279 279 279 279 278 278 279 279 276 276 276 276 277 276 277 277 278 278 277 277 276 277 278 277 277 278 278 280 278 276 276 277 277 276 276 277 276 276
284 283 283 283 282 282 281 280 279 280 279 280 279 279 279 278 279 278 278 278 277 277 276 276 276 275 275 275 276 276 277 276 276 275 276 276 276 279 277 276 277 276 276 276 276 276 277 276 275 276 276 275
283 283 282 281 281 281 280 280 279 279 279 278 278 278 277 278 278 278 278 278 277 276 276 275 274 275 275 276 276 275 276 275 276 276 275 276 275 275 275 275 277 276 275 276 276 276 277 276 276 276 275 275
283 282 282 281 282 280 280 279 279 278 278 278 278 277 277 277 278 277 277 277 276 275 275 274 274 274 275 276 275 275 275 275 275 275 275 275 275 274 275 276 274 274 274 275 276 276 276 276 277 275 274 275
282 281 281 280 280 280 279 278 278 278 278 277 277 276 276 276 277 276 276 276 276 275 275 274 274 274 275 276 275 274 274 274 276 274 276 275 276 274 274 273 273 274 274 275 276 276 276 276 277 274 274 275
282 281 280 280 279 280 278 278 278 278 278 277 276 276 276 276 276 276 276 275 276 274 275 274 274 274 274 275 274 274 273 274 274 274 274 274 274 274 273 272 272 272 273 275 276 275 276 276 275 276 275 276
282 281 281 280 279 278 278 277 277 277 276 276 276 275 276 276 276 276 275 275 275 274 274 273 274 274 274 274 273 273 273 273 274 274 274 274 273 274 273 272 272 271 273 273 275 275 276 276 275 276 276 276
280 280 279 278 278 278 278 277 277 277 276 276 275 276 276 275 275 275 275 274 274 274 274 273 273 273 274 274 273 272 272 271 271 272 273 273 273 272 273 272 271 271 271 272 272 275 276 275 276 276 276 274
279 278 278 278 278 277 277 276 277 276 276 275 275 275 275 275 275 275 274 274 274 274 275 274 273 273 273 273 273 272 271 271 272 273 272 274 274 272 271 270 270 270 270 270 271 273 273 274 276 277 276 274
281 280 279 278 277 277 276 276 275 274 275 275 276 275 274 274 274 274 274 274 273 274 273 273 272 272 272 272 272 273 273 272 273 271 271 272 271 272 271 269 270 269 270 271 269 269 271 274 275 276 276 275
281 281 281 279 278 277 276 277 276 275 275 275 274 274 274 274 274 274 273 273 273 272 272 272 272 271 271 271 273 271 270 270 270 270 270 270 271 271 271 271 271 268 269 265 267 270 269 271 271 275 274 274
282 281 280 279 278 278 276 275 276 275 275 274 273 273 274 274 273 273 273 273 272 272 271 271 271 271 270 270 271 270 269 269 269 269 269 270 270 271 269 269 269 269 268 266 266 269 269 269 269 268 271 269
281 280 278 277 277 276 275 275 274 273 273 273 273 273 272 272 273 273 272 272 272 272 270 270 270 270 270 270 270 270 269 268 268 268 269 269 269 269 269 267 267 268 268 267 267 263 266 267 267 265 267 267
279 278 276 275 274 272 272 272 272 271 271 271 271 271 271 272 272 272 271 270 271 271 271 270 270 269 269 269 268 268 268 268 267 267 267 268 268 268 269 268 266 265 269 267 266 265 264 263 263 262 262 265
279 277 276 275 274 274 273 272 273 274 273 272 271 271 271 270 270 270 269 269 269 269 269 269 269 269 268 268 267 267 266 266 265 265 266 267 267 267 269 268 265 265 265 266 266 264 264 264 263 261 259 258
Wind_Speed
21 19 19 18 18 17 17 17 17 17 17 17 17 17 17 18 19 19 19 19 18 19 18 18 17 17 17 17 17 18 18 18 18 18 18 19 19 20 21 21 21 21 21 21 21 20 20 21 22 21 17 10
20 19 19 18 17 17 17 17 17 17 17 17 17 17 17 18 18 19 19 19 19 19 18 18 18 18 18 17 17 18 18 18 18 18 18 18 19 20 21 22 22 21 21 21 20 20 20 19 20 20 17 8
13 19 18 18 17 17 17 17 17 17 17 16 15 15 15 16 16 17 18 18 18 19 19 18 18 18 18 18 18 18 18 18 19 19 19 18 18 18 20 21 21 20 21 20 20 19 19 19 17 19 12 9
11 15 17 16 16 16 17 17 17 17 15 14 13 14 14 14 11 12 12 17 14 17 18 19 16 18 17 18 18 18 18 18 19 19 19 19 18 18 17 18 19 19 19 18 18 18 18 17 16 8 7 10
10 11 15 13 16 16 16 15 15 14 13 12 11 10 12 12 8 6 6 7 8 14 11 16 17 17 17 17 18 19 19 19 19 19 19 19 18 17 17 16 17 17 17 18 18 19 18 17 9 7 6 8
6 6 8 6 6 6 9 11 11 9 7 7 4 10 7 6 6 6 5 5 8 6 9 11 17 17 17 17 17 18 19 18 19 18 18 18 18 17 16 16 7 8 14 18 18 17 17 9 6 7 7 6
6 7 5 6 6 6 10 9 8 6 6 5 5 5 5 5 4 5 4 4 6 6 12 11 15 16 17 18 18 18 17 17 17 17 17 17 17 16 16 8 6 7 7 8 14 12 8 5 6 7 7 6
5 4 4 4 4 5 5 5 6 6 5 5 5 5 5 5 5 5 5 8 11 10 5 8 13 16 16 17 17 17 11 13 15 17 16 16 15 9 5 6 7 6 5 5 5 5 6 6 6 6 7 6
5 5 5 5 5 5 5 5 5 5 5 5 4 4 4 5 5 5 5 4 5 5 6 5 6 6 6 6 6 12 5 6 6 7 5 5 6 4 6 6 5 5 5 5 5 6 6 6 7 7 7 6
7 6 5 5 5 5 5 5 5 5 5 4 4 3 3 5 5 5 5 5 5 6 5 6 5 6 6 6 6 6 5 6 5 5 4 5 5 5 6 5 4 5 5 5 5 5 6 7 6 6 5 5
6 5 5 5 5 5 5 5 5 5 5 5 5 4 4 5 5 5 5 5 5 6 5 5 5 6 6 6 5 5 5 5 5 5 5 5 5 5 4 4 4 4 5 5 5 6 6 5 5 6 6 6
6 6 6 5 6 5 6 5 5 5 5 5 5 5 5 5 5 5 5 5 5 5 5 5 5 5 6 6 6 5 5 5 5 6 5 4 4 5 4 4 4 4 5 6 5 5 5 5 5 5 6 5
6 6 6 5 5 5 6 4 4 5 5 5 5 5 5 5 5 5 5 5 5 4 5 5 5 5 5 5 5 5 5 5 5 5 6 5 5 4 5 4 4 4 4 5 5 5 5 4 4 4 5 5
6 5 6 5 5 5 5 4 5 5 5 5 5 5 5 5 5 5 5 5 5 5 5 5 5 5 5 6 5 5 5 5 5 5 6 6 5 4 4 4 3 4 4 5 5 5 4 4 4 4 4 4
7 6 6 5 5 5 5 5 5 5 5 5 5 5 5 5 5 5 5 5 5 5 5 5 5 5 5 5 5 5 5 4 5 4 4 4 3 4 3 3 4 4 4 5 5 3 3 4 5 5 5 5
7 6 6 6 5 5 5 5 5 5 5 5 5 5 4 4 5 4 5 4 5 5 5 5 5 5 5 5 5 5 4 4 4 4 2 2 2 2 3 3 4 4 6 4 3 4 4 4 5 5 6 5
6 6 6 6 5 4 5 5 5 5 5 5 5 4 5 5 5 4 4 5 5 5 5 5 5 5 5 5 5 4 4 4 3 4 5 2 2 3 3 4 5 5 4 3 3 4 5 5 4 5 4 5
6 6 6 5 5 5 5 5 5 5 5 6 5 4 5 5 5 4 4 4 4 5 5 5 5 5 5 4 4 3 4 4 3 4 5 6 3 4 3 4 4 4 3 3 4 4 4 4 3 4 4 4
7 6 6 6 5 5 4 4 5 5 5 5 5 5 5 5 5 4 4 4 4 5 5 5 5 5 4 4 3 4 4 4 4 4 4 5 6 4 5 5 3 3 3 3 4 4 3 3 3 3 4 4
7 7 6 6 5 5 4 4 5 5 5 5 5 5 4 5 5 4 5 4 4 5 5 5 5 4 3 3 3 5 4 3 5 3 4 4 5 5 4 4 4 3 4 4 3 3 2 2 3 4 3 3
7 7 7 6 6 5 4 4 5 5 5 5 6 5 5 4 4 4 4 4 4 5 5 5 5 3 3 3 3 3 4 4 4 4 3 4 5 5 3 5 4 5 5 5 3 2 2 1 2 3 2 2
8 7 7 6 6 5 5 5 5 5 5 5 5 5 5 4 4 4 4 3 3 4 5 4 4 3 3 4 4 4 4 4 4 4 5 3 4 5 4 5 5 5 6 5 5 3 2 2 1 0 1 0
8 8 7 7 6 6 5 5 5 5 6 6 5 5 4 4 4 4 4 3 3 4 5 4 4 3 4 4 5 5 5 5 5 3 4 4 3 4 5 4 4 5 5 5 5 4 1 0 1 0 0 1
7 6 6 7 6 5 5 5 5 6 6 5 5 4 5 4 4 3 3 3 3 4 5 4 3 3 4 4 4 5 5 5 5 5 3 4 4 3 4 6 5 5 6 5 5 4 4 3 1 1 2 2
8 8 7 6 6 6 5 5 6 6 5 5 5 4 4 4 4 3 3 3 3 4 5 4 3 3 3 4 4 4 4 3 4 4 4 3 4 4 4 6 7 7 6 3 5 2 5 4 2 2 1 2
7 6 6 7 7 6 6 6 6 6 5 5 4 4 4 4 4 4 3 3 3 4 4 4 4 3 4 3 5 4 4 4 4 4 6 4 4 4 5 6 7 9 5 3 3 4 4 3 2 4 3 2
8 7 7 7 7 7 7 5 6 6 6 5 5 4 4 4 4 3 4 4 3 4 4 4 4 3 4 4 3 4 4 4 5 5 6 6 3 4 4 5 7 10 9 1 4 1 3 1 0 1 1 1
8 8 9 9 8 7 6 7 7 7 6 5 5 5 4 4 4 4 4 4 4 4 5 5 5 4 4 5 5 5 4 4 5 6 6 6 7 4 5 6 6 9 8 5 3 1 1 1 1 2 0 5
10 11 10 9 10 9 10 8 7 6 5 5 5 5 4 4 3 4 4 4 4 5 5 5 5 4 4 5 5 5 4 4 5 5 5 6 6 6 4 3 3 5 7 9 8 1 1 1 2 0 3 5
11 10 11 11 11 10 8 9 8 8 9 7 6 6 5 4 4 4 5 4 5 5 5 5 5 5 5 6 5 5 5 4 5 6 7 6 5 6 6 3 2 3 5 8 7 7 4 1 2 1 5 1
10 10 9 10 9 9 10 11 7 6 6 6 6 6 6 5 5 6 6 6 6 6 7 6 5 5 5 4 5 4 4 4 4 4 5 4 6 6 5 5 3 3 2 2 5 6 6 8 5 1 2 1
Wind_Direction
89 92 93 92 95 94 92 91 89 88 87 84 82 79 75 72 69 67 64 63 61 60 60 57 57 58 58 58 58 57 58 59 59 59 59 59 58 57 56 54 52 51 50 50 49 50 51 55 53 52 56 51
92 94 96 96 96 97 94 93 91 87 85 84 82 80 76 73 70 67 64 63 63 62 61 59 60 60 60 59 59 59 59 60 60 61 60 59 58 56 55 53 51 50 49 49 50 50 49 52 58 56 54 55
93 96 97 99 98 95 92 87 84 81 80 79 80 79 77 73 69 66 65 63 63 61 61 62 60 61 61 61 60 60 60 60 60 60 58 56 56 54 52 52 49 48 48 48 47 49 50 48 50 57 55 47
99 100 100 96 92 88 86 84 82 79 76 76 76 75 73 71 64 58 58 62 59 60 61 59 59 60 62 62 61 61 60 59 57 56 56 54 51 48 48 46 46 45 46 47 48 49 49 50 46 44 62 55
107 105 97 90 86 84 81 78 75 73 73 70 68 70 70 68 65 56 46 57 58 56 58 61 59 58 59 58 57 57 56 54 53 53 53 52 49 46 47 44 40 40 43 45 48 47 47 44 31 32 50 67
105 101 96 85 83 76 71 71 68 64 57 57 47 63 62 71 75 62 56 46 65 68 62 57 59 57 54 54 51 50 50 50 48 48 49 49 47 45 44 44 37 31 33 40 45 47 48 40 35 29 31 50
115 115 116 110 98 86 78 69 65 58 58 50 48 55 59 55 73 89 74 65 63 64 59 57 55 52 48 46 45 42 41 44 44 43 44 45 44 45 43 27 27 35 38 31 38 39 37 38 37 34 29 33
116 108 103 96 86 85 85 85 78 62 51 48 58 57 60 63 57 49 46 53 54 53 44 43 44 45 42 40 40 40 33 32 41 40 37 42 45 38 36 32 31 34 31 38 27 26 31 35 35 33 30 23
102 97 93 85 79 74 69 72 73 71 57 48 46 63 71 70 73 66 53 47 48 43 45 46 45 37 37 36 34 35 23 23 25 43 33 23 32 31 42 42 36 33 32 32 32 29 28 33 34 32 25 21
110 105 96 91 87 84 81 79 75 66 56 41 37 38 59 70 66 70 62 51 47 46 40 47 44 40 37 32 35 29 21 25 21 29 35 25 34 41 47 41 42 43 40 34 32 33 33 33 33 31 25 17
81 73 64 65 79 87 77 67 72 75 69 52 30 25 48 63 66 61 63 59 50 51 40 45 42 42 37 34 30 28 18 23 23 18 26 24 32 42 45 50 40 42 44 40 36 34 34 35 33 27 24 16
95 96 99 90 80 71 79 76 78 77 74 65 46 29 29 64 65 65 64 59 58 53 49 48 49 48 42 37 28 24 21 20 23 17 16 24 30 33 21 36 50 41 46 40 36 34 29 36 36 34 25 18
97 93 87 84 79 75 82 72 68 73 71 68 58 41 33 39 54 62 63 64 59 59 57 50 51 50 51 44 30 21 19 19 24 23 13 16 21 28 26 13 35 52 48 49 41 36 28 29 32 36 30 17
97 92 90 88 88 86 83 76 75 70 65 58 58 52 43 45 50 50 56 59 59 62 60 55 46 50 48 49 38 22 20 16 26 28 18 12 14 10 24 17 8 52 54 48 44 40 37 33 36 33 28 21
100 98 96 92 87 85 91 91 82 77 70 62 56 47 46 54 59 52 52 54 56 54 57 56 53 48 47 47 41 25 13 18 29 21 40 18 0 2 11 17 13 44 48 53 40 30 47 50 40 32 27 24
100 99 99 95 90 88 86 85 83 81 78 73 57 44 42 51 54 65 51 60 64 61 54 53 59 51 48 44 34 22 14 19 29 7 351 51 359 10 15 1 34 40 50 47 56 33 40 39 45 34 34 23
99 97 93 90 88 88 81 79 81 85 85 79 69 56 45 46 52 48 59 50 66 74 64 59 55 51 46 43 38 21 2 25 28 20 356 357 40 5 21 24 21 34 37 36 33 52 43 33 35 47 32 26
105 103 102 97 95 93 91 86 88 88 86 86 76 60 57 55 52 46 42 54 54 70 74 66 57 50 38 32 42 29 8 20 31 32 17 349 11 25 26 34 20 36 25 16 27 44 49 28 35 47 35 24
110 110 104 100 95 90 90 89 85 88 84 81 80 75 57 55 57 52 43 40 54 59 67 68 61 46 30 34 48 38 13 23 19 44 33 10 356 34 21 17 25 25 30 26 38 36 46 31 24 39 40 17
106 103 97 99 98 91 87 91 88 84 88 92 91 80 68 58 61 55 48 45 48 59 62 66 62 40 29 40 53 43 25 25 27 25 46 23 19 13 26 15 1 16 16 8 27 56 40 35 46 41 33 21
103 103 106 102 101 103 99 96 97 85 84 84 79 71 68 63 64 51 52 58 53 61 60 62 60 28 32 46 59 56 38 25 26 28 33 39 26 16 19 24 357 6 3 353 344 33 37 23 64 84 26 14
111 111 108 106 101 101 98 97 92 91 80 79 79 79 78 71 65 58 50 51 77 79 75 66 61 32 31 46 42 57 54 30 17 47 30 39 56 32 29 18 17 357 348 343 331 324 30 352 79 122 65 17
115 112 105 106 107 107 102 90 87 86 81 70 67 70 78 78 65 65 55 47 57 82 77 69 54 46 42 48 48 43 42 34 15 28 54 34 43 79 48 34 15 8 335 325 311 303 299 143 304 247 171 112
122 121 126 122 119 115 113 107 96 85 80 74 72 79 80 72 70 63 61 59 60 74 78 70 53 53 59 52 58 52 46 33 21 3 35 50 29 44 59 32 12 4 338 312 301 285 279 235 237 215 195 188
143 146 135 136 136 132 126 117 106 91 89 88 84 81 75 75 72 70 65 50 43 65 88 81 58 37 55 76 61 60 56 47 23 13 353 86 55 42 39 29 12 356 322 300 326 265 244 280 185 192 187 240
149 147 153 143 141 136 126 119 114 109 94 100 98 91 92 88 72 71 64 60 44 48 65 82 73 53 22 69 95 76 62 45 35 16 23 5 93 60 59 45 19 4 349 59 39 347 333 240 201 210 273 265
145 150 140 133 132 135 129 104 99 100 107 102 97 86 83 85 86 77 69 59 60 48 41 60 70 60 44 23 69 83 60 47 36 29 26 20 31 72 54 62 38 23 35 15 310 298 39 271 35 279 312 258
139 123 117 120 125 111 99 116 108 101 103 100 100 93 82 76 84 77 69 69 67 59 52 43 49 50 46 37 33 73 72 52 52 31 30 28 20 30 60 41 44 42 23 42 347 128 183 253 71 1 307 347
126 121 115 109 98 98 103 98 112 124 127 133 123 116 99 87 85 91 81 63 67 76 61 50 46 47 48 46 36 49 68 66 50 43 31 31 38 25 60 59 66 57 43 37 29 99 31 27 59 171 288 331
132 138 141 141 141 142 145 142 158 164 157 149 152 123 112 96 80 81 81 72 56 58 68 63 54 47 51 52 44 43 55 62 58 44 38 23 38 33 18 74 62 78 65 56 45 42 53 111 165 218 278 5
142 144 155 158 156 152 154 149 156 138 135 139 121 124 117 100 71 64 66 52 53 55 50 55 50 46 53 61 61 51 52 63 67 59 47 27 41 39 25 30 70 61 68 82 55 49 50 61 56 57 89 49